Theta_e
318 319 319 319 320 320 320 320 321 321 321 321 322 322 322 323 323 323 323 323 323 323 323 324 324 324 324 324 324 323 321 316 318 315 313 317 319 327 330 332 334 334 330 310 307 307 305 306 306 307 303 301 298 299 301 303 302 300 294 289 289 294 300 304 303 305 310 309 311 314 315 315 313 318 322 325 321 321 323 322 320 320 320 323 324 327 329 330
318 319 319 319 320 320 320 320 321 321 321 321 321 322 322 323 323 323 323 323 323 324 324 324 323 324 324 324 324 323 319 318 315 315 313 322 326 331 335 334 337 333 328 307 306 305 304 303 305 305 301 297 300 298 304 298 304 296 292 289 291 296 303 309 309 311 310 309 312 313 315 315 314 316 317 317 316 318 318 319 317 316 318 321 324 326 327 328
318 318 318 319 319 319 320 320 320 320 321 321 322 322 322 322 323 323 323 323 324 324 324 324 324 324 324 324 324 321 319 318 317 311 316 330 331 332 334 335 334 333 309 306 307 306 305 304 304 304 299 296 296 297 300 297 302 295 294 289 296 306 309 312 312 311 313 313 311 310 311 312 313 316 321 316 316 317 315 313 314 314 315 318 321 324 325 326
317 317 318 318 319 319 319 320 320 320 320 321 321 322 322 323 323 323 323 323 324 323 323 324 324 324 324 324 322 319 319 310 307 312 308 328 333 333 334 334 334 325 313 308 306 307 307 306 305 304 301 297 296 300 299 298 297 296 290 293 303 310 308 311 313 312 313 314 310 310 311 314 317 317 318 317 315 315 316 318 316 314 316 318 320 322 325 324
317 317 317 318 318 319 319 320 320 320 320 321 321 322 322 322 322 322 322 323 323 324 324 324 324 324 325 323 319 319 314 293 297 306 308 329 332 333 334 336 333 318 310 310 309 307 306 305 305 303 300 293 296 297 295 298 300 302 298 305 307 309 308 312 313 313 313 313 311 309 308 312 320 319 317 317 313 312 314 317 320 318 319 319 319 320 323 324
317 317 317 317 318 318 318 319 320 320 320 321 321 321 322 322 321 322 322 323 323 324 324 324 324 325 325 319 318 318 305 288 303 307 330 331 333 335 335 335 332 314 309 306 306 306 305 304 304 299 296 295 293 294 294 298 304 301 305 307 308 310 309 312 312 312 311 311 311 311 315 319 316 314 317 316 314 314 318 318 319 320 321 321 322 322 321 322
317 317 317 317 318 318 318 319 319 319 320 321 321 321 321 321 321 322 323 323 323 323 324 324 324 325 324 319 316 316 304 304 309 309 332 333 332 335 336 335 330 310 308 305 305 304 305 303 303 300 302 296 295 294 297 308 309 307 302 307 308 310 309 310 310 310 311 311 310 313 317 316 316 310 317 314 316 316 318 319 319 320 323 323 321 322 321 321
317 317 317 317 317 318 318 318 319 319 320 320 320 320 321 321 321 321 322 322 322 323 323 324 324 324 320 313 311 305 308 308 315 316 331 333 330 329 333 324 318 311 308 305 305 304 304 302 301 304 299 296 298 302 306 306 308 305 304 308 308 310 310 310 310 310 310 310 312 317 315 315 317 315 315 312 316 317 318 320 320 321 321 321 320 320 320 320
317 317 317 317 317 317 317 318 318 319 319 320 321 320 320 320 320 321 321 322 323 323 323 323 324 323 317 314 308 305 302 314 312 313 323 322 315 317 319 312 316 310 308 308 308 307 305 301 302 301 296 299 303 303 303 302 299 307 306 308 309 309 310 310 310 310 311 313 316 315 314 316 317 318 313 314 317 319 319 319 320 319 319 319 320 321 322 321
318 318 317 317 317 317 317 317 318 319 319 320 320 320 320 320 320 320 320 321 322 323 324 324 324 321 317 316 305 299 308 312 312 316 318 316 313 314 312 312 312 310 309 307 306 306 304 302 304 303 302 302 306 303 306 305 302 309 308 309 309 309 310 311 308 308 310 311 314 313 313 314 316 316 307 317 318 321 319 318 318 318 317 318 318 320 322 322
317 317 317 317 317 317 317 317 318 319 319 319 319 319 319 319 319 320 320 321 322 323 324 324 324 321 311 310 304 300 314 311 310 312 315 314 313 311 309 309 310 309 308 306 305 306 305 304 306 305 301 301 305 303 305 305 310 310 309 309 308 309 309 308 308 308 309 309 311 311 308 311 313 312 309 315 319 320 316 315 315 316 316 317 318 319 321 321
317 317 318 317 317 317 317 317 317 318 319 319 318 318 318 318 319 320 320 321 322 323 324 324 322 317 311 308 304 306 315 311 311 311 313 313 311 311 311 310 308 307 307 304 306 307 306 306 305 303 296 304 298 303 303 308 309 308 309 303 305 307 306 308 306 309 309 307 310 309 307 306 309 307 313 317 319 318 316 314 314 315 316 317 318 319 319 321
317 317 317 317 317 316 317 317 318 318 318 317 317 317 317 318 318 319 320 321 323 324 325 323 321 319 312 301 307 317 318 309 312 312 312 312 310 310 311 310 310 309 308 306 305 307 307 305 305 302 304 302 302 297 305 306 306 306 305 302 299 298 299 305 308 308 307 309 309 306 290 297 306 311 313 317 316 316 314 313 314 314 315 316 318 318 319 320
317 317 317 317 317 317 317 317 318 317 317 317 316 316 317 317 319 319 321 321 325 325 324 321 318 315 309 304 313 314 316 309 312 311 311 313 309 309 310 310 309 309 308 307 306 306 307 305 306 305 307 304 302 310 305 305 305 296 301 299 291 289 294 303 306 307 304 310 307 305 296 301 308 310 313 316 317 314 312 313 314 314 313 314 315 317 318 318
317 317 317 317 317 316 317 317 317 317 316 316 316 316 315 316 318 319 322 322 322 324 323 319 317 312 305 307 317 315 347 311 309 310 311 309 308 307 308 309 309 309 307 307 308 308 308 307 305 301 297 307 308 303 297 298 299 298 292 289 293 289 292 303 310 305 302 305 308 303 296 302 308 309 312 315 315 313 311 313 313 313 314 314 314 315 316 317
317 317 317 317 316 316 316 316 316 316 316 316 315 315 315 316 318 320 321 321 322 322 321 317 317 312 308 304 312 327 312 307 307 310 309 310 308 307 309 309 308 308 307 306 308 311 307 306 302 298 302 304 300 295 292 292 292 294 290 291 292 293 294 298 303 306 308 305 306 302 292 301 305 310 312 314 313 313 311 311 312 313 314 315 315 316 317 318
317 317 317 316 315 315 316 316 316 316 315 315 314 314 315 317 319 320 320 320 320 320 317 309 316 314 303 311 316 308 305 308 310 310 310 309 309 307 308 307 305 305 306 306 307 306 305 303 303 300 301 296 299 295 289 284 285 288 293 290 293 291 293 291 299 305 305 304 300 303 298 301 305 310 311 312 313 311 309 310 311 312 314 315 317 317 318 319
316 316 316 315 315 315 315 316 316 316 314 314 313 314 314 318 319 318 316 317 319 319 315 316 313 308 303 314 307 305 307 309 311 308 308 308 309 307 307 305 306 305 305 303 305 303 303 298 298 294 295 298 296 292 286 286 289 287 290 290 290 293 293 294 294 300 304 302 300 299 298 300 304 309 310 311 313 311 309 311 311 312 313 314 316 317 318 319
316 316 315 315 315 315 315 315 315 315 313 312 314 317 318 315 315 316 314 315 309 306 301 306 306 297 294 304 313 309 309 310 310 308 306 308 309 308 310 309 307 303 299 299 297 301 299 296 294 291 292 294 295 295 291 291 295 294 294 292 291 291 292 293 298 303 304 299 298 297 294 299 304 306 310 311 313 310 310 311 311 312 312 313 315 317 317 318
315 316 315 315 315 315 314 315 315 314 312 310 313 317 317 312 309 306 311 313 306 307 309 308 312 310 308 309 305 307 311 310 306 306 307 308 313 306 305 307 304 302 297 296 296 298 298 291 290 289 288 293 297 297 297 297 298 297 297 294 293 292 294 297 300 303 305 301 298 298 297 302 304 306 309 311 310 309 309 309 310 311 311 313 314 316 317 317
315 315 315 315 315 314 314 313 313 313 311 309 312 314 308 310 301 300 306 309 309 311 309 310 312 310 309 308 306 307 304 305 307 305 307 310 307 304 299 304 299 295 294 297 297 298 299 291 290 293 293 293 294 294 295 296 297 295 294 293 292 292 290 297 299 303 305 300 296 297 297 297 304 307 309 311 309 307 308 309 310 311 312 313 314 315 316 317
314 315 315 315 315 314 313 313 312 311 310 308 317 314 315 314 311 312 310 303 312 315 311 311 311 310 311 309 308 306 305 302 302 304 307 309 306 300 298 300 297 293 295 297 297 293 293 290 293 294 295 296 295 295 296 296 296 295 291 291 291 292 295 297 301 302 303 301 294 296 296 296 299 306 309 310 309 309 310 310 311 312 312 313 314 314 316 316
314 314 314 314 314 313 312 312 311 309 310 316 318 318 316 319 318 319 316 309 307 314 313 312 310 310 310 309 307 308 303 301 299 302 305 306 302 300 298 296 294 294 296 297 293 290 290 290 293 296 296 296 294 294 293 295 296 291 290 288 288 293 292 289 296 300 301 298 292 295 295 294 298 302 308 311 311 310 311 311 312 313 312 313 313 314 315 315
314 314 314 314 314 313 311 310 309 311 314 313 314 314 318 315 317 318 313 305 304 310 312 312 308 305 303 303 307 306 302 302 301 301 308 305 300 301 298 297 295 294 292 294 293 290 289 293 296 296 296 295 294 293 291 291 290 293 293 290 290 293 294 292 293 298 299 299 297 295 291 289 294 297 303 308 310 310 311 312 311 313 314 314 314 314 315 316
313 313 313 313 313 312 310 309 307 310 310 315 315 318 319 318 320 318 311 303 302 303 310 307 309 308 307 312 309 305 304 303 303 305 306 305 302 298 299 302 298 292 294 295 294 292 294 297 297 294 294 294 293 290 291 292 288 289 292 293 292 293 294 296 296 294 288 289 295 293 281 285 290 295 302 305 304 307 310 310 310 311 312 311 312 313 314 317
313 313 313 313 313 310 309 310 314 312 309 308 311 316 316 322 323 318 308 297 293 301 304 298 310 303 313 305 306 304 304 299 303 305 307 305 308 303 301 294 299 293 295 295 293 292 293 297 295 294 294 294 293 292 294 293 289 286 290 294 294 294 293 296 294 292 284 283 292 294 285 279 285 292 296 302 304 305 307 308 310 311 310 310 311 312 313 316
313 312 312 312 311 310 303 305 312 308 308 310 312 314 321 325 324 314 304 287 283 299 299 304 306 305 311 308 305 306 290 293 304 306 305 308 304 307 298 293 295 297 300 300 290 290 298 295 294 294 294 292 290 290 293 292 288 288 293 294 295 293 293 293 295 291 287 293 293 295 287 282 283 286 295 301 303 303 304 306 307 309 309 309 310 312 313 315
312 312 312 311 311 310 304 308 306 303 304 309 316 318 322 324 323 312 293 281 283 303 301 303 307 313 310 308 307 301 300 303 298 303 305 306 305 300 299 295 295 295 296 291 286 292 296 295 294 292 291 289 291 293 294 294 290 290 294 296 294 293 292 293 290 289 291 288 285 285 293 283 282 287 296 300 299 299 302 304 305 306 308 308 310 312 314 315
311 311 311 311 310 310 308 308 309 304 308 311 318 321 328 323 315 302 285 281 297 301 317 305 315 309 306 307 304 304 304 304 297 301 306 306 306 300 294 295 297 295 295 294 290 295 298 297 296 294 290 291 294 293 293 296 291 293 295 295 296 295 294 296 292 290 289 283 280 285 290 281 279 285 291 295 296 297 300 303 305 306 307 309 310 311 313 315
311 310 310 310 310 311 311 309 308 314 315 316 319 324 324 314 303 291 283 282 305 294 306 307 304 300 305 300 300 302 301 302 303 304 303 300 301 301 301 304 300 296 293 296 293 294 297 306 302 296 292 295 294 294 295 295 295 296 294 294 291 293 291 292 290 288 284 280 282 288 293 285 281 285 290 292 293 299 299 300 303 307 308 310 311 311 312 315
309 309 309 309 304 313 312 310 313 318 317 319 323 322 313 303 292 280 280 290 307 304 308 306 303 305 302 301 298 304 301 301 301 301 297 299 298 297 297 295 296 291 291 293 292 297 298 299 296 297 302 300 297 295 296 296 296 295 290 291 286 287 287 285 284 285 279 277 283 290 293 291 283 286 289 294 296 301 301 301 303 306 308 309 310 312 312 315
308 308 309 307 309 312 309 309 314 317 319 321 322 314 301 288 290 283 283 307 292 296 301 301 307 304 302 302 301 299 299 301 301 297 294 293 293 295 289 288 291 283 283 286 289 294 293 294 296 300 302 296 295 290 293 293 293 292 289 287 284 279 280 278 279 278 278 282 287 290 293 287 284 285 291 295 298 301 303 304 305 307 309 310 311 312 313 315
307 307 308 310 310 308 313 315 317 320 320 321 316 306 294 282 284 288 292 298 290 300 301 308 304 303 303 299 298 301 301 297 299 298 297 298 295 293 296 294 293 289 284 289 288 287 288 295 296 296 297 301 293 287 288 286 288 289 287 284 279 276 274 276 277 278 277 283 289 289 292 284 287 291 295 296 300 304 305 306 307 309 309 311 312 313 313 314
306 307 306 312 311 313 319 322 325 320 318 317 310 299 291 285 287 308 297 297 299 309 308 304 302 303 301 296 299 299 294 301 297 295 297 295 293 293 294 296 295 295 290 290 286 287 281 284 291 295 291 298 295 290 292 291 289 291 294 288 285 279 280 277 278 278 280 281 285 291 285 283 283 288 297 299 303 305 306 308 309 311 311 312 314 314 314 314
306 307 308 311 313 318 318 320 318 321 315 312 303 292 285 286 291 292 294 298 302 306 304 306 303 302 298 299 301 301 299 295 303 296 293 292 290 294 295 293 296 295 293 285 291 288 291 286 291 298 298 299 297 299 297 291 287 290 293 290 287 287 283 283 279 279 281 280 281 284 284 287 289 296 298 302 304 305 308 309 310 311 311 312 312 312 313 314
308 312 319 320 321 320 322 321 320 318 312 307 292 286 286 292 292 299 298 304 305 301 303 300 300 297 296 293 299 298 302 297 298 294 294 294 295 293 297 296 295 297 290 286 290 285 286 285 295 298 299 297 298 300 299 295 285 288 288 286 289 292 288 279 280 286 283 279 278 281 286 289 294 298 297 299 302 303 306 308 310 310 311 310 311 312 313 313
310 315 316 323 324 324 325 325 324 316 311 303 290 288 293 302 301 301 306 305 304 304 298 290 293 294 292 293 292 296 297 297 296 292 290 295 290 296 296 297 300 299 297 290 289 292 285 286 293 296 294 299 300 298 298 297 293 287 285 289 292 296 293 286 281 279 276 277 280 283 284 284 286 285 295 297 298 300 304 307 309 310 310 309 310 311 312 313
308 312 317 320 323 326 326 322 318 310 306 299 290 301 305 299 305 306 309 307 306 305 296 292 294 300 294 293 292 295 296 292 293 294 295 297 290 300 297 297 299 300 300 295 289 295 291 284 290 296 298 299 301 297 295 296 296 292 292 296 290 282 283 284 281 276 276 274 276 279 284 284 287 288 291 294 296 298 301 304 306 307 308 309 309 310 312 313
307 312 311 319 325 321 318 318 313 307 300 294 290 293 305 302 305 307 310 309 308 303 295 297 294 297 296 291 296 296 297 290 296 294 290 293 289 300 298 299 299 302 302 301 295 294 292 286 285 293 297 298 297 294 285 290 298 299 299 296 297 289 288 283 281 281 282 277 276 279 283 283 291 291 296 295 298 299 301 302 305 307 308 308 308 309 311 311
314 309 306 318 321 322 319 316 308 303 298 293 292 298 304 304 305 306 307 307 303 299 298 298 300 294 297 298 298 294 296 297 294 295 293 296 295 301 299 301 298 300 303 303 299 299 289 290 283 290 296 295 287 292 291 290 290 293 293 290 290 291 293 289 288 287 282 278 275 276 276 281 288 296 296 298 299 300 301 302 304 306 307 308 308 308 310 311
313 310 308 320 323 321 318 311 304 301 299 299 304 305 305 303 305 306 306 310 306 309 302 302 298 295 298 295 294 298 296 295 295 292 295 296 293 288 301 301 301 299 302 300 298 295 286 287 286 286 289 286 290 296 298 297 296 293 291 290 291 290 286 281 281 288 288 281 281 278 277 282 292 302 299 297 297 300 302 302 302 304 305 306 307 308 309 310
309 305 308 323 321 318 309 299 301 303 301 300 298 304 303 312 304 304 307 309 308 303 308 305 304 301 298 300 298 297 296 294 296 294 296 292 299 296 301 303 301 302 297 293 296 301 295 291 289 284 288 291 295 299 302 302 301 299 296 295 293 289 287 280 281 282 285 287 289 283 282 282 293 299 300 301 301 301 303 305 305 305 306 306 307 309 310 310
308 306 319 325 321 316 303 295 298 297 302 301 308 308 308 308 306 308 304 306 304 305 302 302 302 300 302 300 300 297 298 294 296 295 296 297 297 300 302 303 303 303 298 293 297 296 315 288 283 288 290 294 296 298 301 301 299 296 295 298 295 292 292 287 285 285 286 284 283 279 281 282 293 299 300 300 302 302 303 304 304 305 306 305 306 307 308 309
308 310 314 323 320 313 302 292 294 292 296 304 307 306 310 309 307 305 305 306 305 303 299 302 303 305 301 301 298 298 299 288 298 296 294 298 296 303 302 303 304 300 298 295 293 299 287 288 288 280 276 283 287 291 292 297 297 292 293 293 298 298 297 295 291 289 284 285 287 280 277 278 290 299 300 301 301 302 303 304 306 305 305 305 306 307 308 310
306 310 313 314 314 309 302 300 296 290 297 302 302 301 303 305 309 307 307 304 305 303 302 299 304 303 301 302 301 301 301 297 293 300 300 300 300 305 303 304 305 300 306 305 313 301 289 288 285 281 278 277 276 278 281 287 290 292 296 296 296 297 294 291 287 283 283 284 288 282 278 286 293 297 299 299 299 300 302 304 306 307 307 306 306 307 308 309
306 294 300 306 307 304 304 306 303 301 300 299 294 302 303 300 306 308 306 303 305 305 301 304 303 303 302 299 298 298 298 302 297 297 298 297 301 303 304 305 306 304 310 318 312 299 291 292 286 282 278 277 281 287 290 294 291 289 293 294 295 296 296 293 287 284 284 282 285 285 287 288 292 295 296 297 297 298 300 301 302 304 306 307 307 307 308 308
307 301 290 293 299 300 300 301 304 303 297 298 292 301 300 301 303 304 306 299 305 303 304 304 304 300 299 298 297 297 300 299 301 300 300 300 302 303 304 306 307 315 317 313 314 297 290 286 292 290 289 289 292 292 296 296 292 293 293 293 294 294 295 293 288 287 287 287 282 286 290 289 291 293 294 295 296 298 300 300 301 303 305 307 308 306 310 307
300 303 306 300 295 287 294 292 300 302 304 302 300 304 301 300 300 295 302 305 306 305 299 302 304 303 302 300 298 291 297 295 297 293 301 300 299 301 300 305 304 313 310 303 306 297 290 286 293 294 292 295 296 296 297 296 296 294 294 293 293 294 293 292 291 292 291 286 284 288 290 290 291 293 296 296 297 298 299 302 302 303 303 303 303 303 304 304
309 308 309 312 301 301 295 298 306 303 303 301 298 304 301 300 299 303 300 301 304 302 301 290 300 303 302 303 298 295 295 288 289 296 297 297 299 297 295 298 303 303 303 300 300 298 291 286 293 294 293 291 295 296 296 294 294 294 294 294 294 294 293 293 292 293 293 291 291 292 292 293 296 296 296 297 299 300 300 302 301 302 302 303 303 303 303 304
305 302 303 308 307 303 306 305 305 303 302 311 293 302 303 302 300 301 303 300 294 301 306 300 301 303 302 302 299 295 299 297 298 294 299 298 295 297 296 296 294 297 300 300 301 300 295 287 295 292 287 290 293 295 295 294 293 291 292 293 294 293 293 293 293 293 294 291 291 291 292 291 294 298 299 300 300 300 301 302 302 303 304 305 304 303 303 304
312 314 311 306 300 300 303 304 303 300 296 298 294 302 303 304 301 304 303 306 300 301 304 300 301 301 302 301 300 301 303 302 303 301 301 301 294 300 297 295 300 296 297 297 298 300 295 288 292 288 285 284 288 293 293 293 292 291 289 290 291 292 292 291 292 293 292 291 290 287 287 289 293 295 298 298 300 299 299 300 301 302 304 303 302 302 302 303
314 314 315 307 297 302 302 302 301 299 293 297 300 302 302 303 304 302 294 305 307 307 305 303 301 298 298 298 299 303 304 305 304 303 302 302 302 300 301 301 301 299 295 296 296 294 292 289 289 284 286 280 286 291 292 290 289 286 285 291 294 294 294 294 294 296 296 294 287 286 287 290 295 298 298 297 298 299 299 299 300 302 302 303 303 302 303 304
Wind_Speed
15 14 14 14 13 14 14 14 14 13 12 12 11 11 10 9 8 8 7 7 8 9 9 9 8 8 9 9 10 9 8 1 1 1 1 7 4 6 4 3 4 2 3 0 3 3 4 4 4 3 2 1 4 0 3 1 2 2 1 3 5 3 4 5 7 6 8 7 4 4 4 7 6 3 6 9 12 12 14 15 11 14 11 13 11 13 9 6
15 15 15 15 15 15 15 15 14 14 13 12 12 11 10 9 8 7 7 7 8 8 8 8 7 8 9 9 10 9 6 1 1 2 9 4 6 7 6 4 4 4 2 1 1 2 1 3 3 3 1 2 0 2 0 2 1 1 0 5 5 2 1 2 4 8 6 3 6 5 5 3 3 3 2 8 8 9 14 13 12 8 3 9 11 11 11 7
16 16 15 16 15 15 15 15 15 14 13 13 12 11 10 9 7 7 6 7 7 7 6 7 7 8 8 8 9 7 5 1 1 4 6 7 9 7 6 5 5 3 0 0 0 1 1 3 4 6 3 2 2 3 2 5 1 3 2 5 3 3 5 5 6 5 3 8 7 7 8 9 2 5 4 9 8 9 15 13 6 5 6 7 7 8 8 7
16 16 16 16 16 15 15 15 15 14 13 13 12 11 10 8 7 6 6 7 6 6 6 6 8 8 9 9 8 6 1 1 1 3 3 7 7 7 7 5 5 4 2 2 2 1 2 3 4 3 2 3 4 1 1 5 1 2 6 3 5 7 9 2 5 5 6 5 5 5 8 12 5 2 5 9 11 10 7 5 9 10 9 8 7 7 4 3
17 16 16 16 16 15 15 15 15 14 14 13 12 11 10 8 6 6 6 6 6 5 5 7 7 8 8 6 9 2 2 3 2 2 3 8 8 8 8 6 6 3 1 0 1 2 3 3 3 3 4 3 3 1 4 3 2 4 5 11 11 6 10 8 7 7 6 5 4 4 8 10 6 12 8 9 10 6 3 7 6 8 6 8 7 4 4 4
17 16 16 16 16 16 16 15 15 15 14 13 13 11 10 8 6 6 6 6 5 4 5 6 7 8 7 2 4 2 1 2 2 2 5 10 9 9 7 5 5 2 1 3 2 4 6 4 4 3 2 1 3 3 3 3 5 9 4 6 4 7 12 6 7 6 6 4 5 6 7 10 13 10 10 15 11 5 6 6 7 5 1 2 5 4 5 7
17 16 17 17 17 17 16 16 16 15 14 13 13 12 11 7 6 5 6 6 5 4 6 6 7 8 6 2 2 2 1 4 1 5 6 9 10 7 7 3 5 2 2 2 2 1 0 3 2 3 0 3 4 3 5 12 10 12 4 5 5 5 8 6 5 7 6 9 7 6 7 9 12 15 7 16 12 10 5 8 9 1 2 3 3 5 9 7
18 18 18 18 17 17 17 17 16 15 14 14 13 13 11 8 5 5 5 6 4 4 6 7 7 6 4 1 1 2 1 4 9 2 10 7 6 5 4 2 3 2 1 5 3 3 2 3 5 1 1 1 1 10 10 12 10 13 6 3 6 7 6 7 7 9 9 6 7 13 14 10 14 10 7 10 12 13 11 9 7 6 6 3 3 2 4 5
18 18 19 18 18 18 18 17 16 16 15 15 14 13 13 10 6 5 5 5 4 4 6 7 6 1 1 0 1 4 3 5 6 7 6 3 8 3 6 2 7 4 3 3 8 7 1 3 3 4 1 2 1 9 4 11 5 2 7 4 5 5 5 6 8 7 8 5 11 16 15 14 15 12 9 8 9 11 11 9 9 8 9 7 6 3 4 6
18 18 19 19 19 19 18 18 16 16 15 15 14 14 13 11 6 6 5 4 5 6 8 7 5 4 0 1 2 3 6 4 3 8 9 8 7 3 2 5 5 3 1 6 1 4 3 6 1 3 4 4 2 4 6 13 6 7 9 8 9 6 6 2 6 4 4 4 10 14 12 10 6 3 2 3 6 8 10 9 6 9 9 7 6 4 4 6
18 17 17 18 19 18 18 18 17 16 16 15 14 14 14 11 6 5 4 4 5 9 9 6 3 4 1 0 1 2 6 7 3 5 10 10 6 3 7 5 4 2 6 7 4 4 4 3 0 2 4 1 3 3 7 5 12 11 12 9 6 4 4 5 5 6 5 3 4 11 6 3 5 4 7 9 9 8 12 8 6 7 8 8 6 6 5 7
17 17 17 17 18 18 17 18 17 16 16 16 15 14 13 11 6 4 4 4 7 8 8 5 7 1 0 1 4 6 5 5 4 5 7 5 5 8 9 7 3 5 3 4 7 8 4 3 3 3 1 1 3 4 5 7 10 12 13 9 4 3 3 1 3 1 1 2 4 10 11 5 5 5 7 6 6 6 10 8 6 6 6 5 6 5 4 5
17 16 15 15 17 17 17 17 17 16 16 16 15 14 14 12 9 5 5 3 7 7 7 5 5 2 1 4 6 8 5 3 7 7 5 4 4 5 6 5 5 6 5 3 5 5 6 3 4 7 1 2 0 1 4 4 4 7 5 8 3 2 2 2 1 4 7 0 2 2 3 6 5 1 6 5 7 7 9 6 5 5 5 4 3 4 3 5
18 17 16 16 16 15 17 17 16 16 16 16 15 14 15 13 11 5 5 6 7 7 6 6 3 1 1 4 6 3 7 5 8 4 7 5 3 6 4 5 5 6 4 4 7 5 5 4 5 1 0 4 1 0 4 4 4 2 2 5 2 2 0 4 1 3 5 2 1 3 5 4 6 6 3 6 7 10 8 7 5 3 3 3 2 3 4 2
17 17 18 16 16 15 16 17 15 16 17 17 16 15 15 17 13 6 6 5 8 7 5 4 1 1 2 6 6 8 8 8 5 8 7 5 6 4 6 6 8 8 5 6 3 1 1 4 4 3 2 2 2 4 2 3 4 2 2 2 4 2 2 3 5 2 4 1 1 9 4 6 8 8 6 5 6 6 10 6 4 3 3 3 3 2 2 4
17 16 16 16 16 18 18 17 16 15 16 16 17 18 18 14 13 9 6 5 10 9 4 0 0 1 0 3 2 5 1 2 6 8 6 6 5 6 10 10 5 6 4 4 4 1 1 1 0 2 0 3 7 6 5 5 3 4 3 1 1 1 1 1 2 0 5 3 1 1 3 0 4 9 7 5 6 5 8 6 4 3 3 4 4 4 4 6
17 16 15 17 17 17 17 16 16 16 16 16 19 18 12 11 10 7 5 8 6 5 4 1 3 1 1 3 3 0 2 5 4 2 4 5 6 5 2 0 1 5 5 6 4 2 3 1 1 2 2 4 2 6 5 4 3 3 1 2 4 3 1 0 2 1 3 5 1 1 6 7 4 9 9 5 6 5 7 6 6 7 7 7 6 5 6 6
17 16 17 17 17 17 17 16 17 15 16 18 14 12 14 9 3 6 2 7 4 5 4 2 1 1 6 3 2 5 2 2 1 6 7 3 7 6 1 1 1 1 1 2 1 1 1 1 3 1 1 2 1 5 3 2 5 5 1 0 3 0 3 5 4 4 5 4 5 2 2 3 4 7 8 7 6 6 7 8 9 9 8 8 6 6 6 6
17 18 18 18 17 16 15 15 16 16 16 19 16 14 9 3 2 1 1 1 2 1 1 0 2 1 1 4 8 5 4 6 0 2 4 1 2 2 1 2 0 1 2 1 3 1 1 1 5 4 0 1 4 6 7 6 5 6 7 6 3 4 2 5 5 4 9 5 4 5 5 4 5 7 7 6 6 7 6 6 4 4 4 3 5 7 7 6
18 17 18 18 18 17 16 15 15 14 15 11 9 7 4 5 4 1 2 1 2 6 4 3 4 3 3 5 4 3 1 3 1 3 3 2 0 1 2 1 0 2 2 3 2 2 3 1 3 3 4 7 7 7 8 6 9 5 2 4 5 4 2 2 4 7 8 3 6 6 4 6 9 11 11 9 6 4 4 7 5 4 4 6 6 8 9 8
19 17 17 17 19 19 17 16 14 12 10 3 3 2 1 2 3 3 5 6 4 5 6 8 8 7 7 3 2 1 1 1 0 1 3 1 2 2 3 0 0 3 3 6 3 2 5 2 2 4 7 10 7 6 4 5 4 4 4 5 3 3 3 4 8 9 8 7 5 4 4 6 12 10 9 8 7 9 10 8 7 8 9 9 8 8 9 7
19 20 19 19 20 20 19 16 13 9 6 1 1 0 3 2 4 3 1 4 9 4 7 11 5 6 7 7 5 4 4 1 4 4 4 1 1 2 2 0 1 5 5 1 0 3 2 3 6 8 4 1 2 2 5 6 3 2 6 6 5 2 2 2 3 7 9 5 5 5 7 8 9 10 9 12 13 9 11 13 13 13 11 9 9 7 7 7
19 20 20 20 21 21 21 18 13 10 1 1 0 1 3 4 4 1 2 1 6 5 4 6 4 6 10 3 1 7 1 2 4 2 3 2 1 4 2 2 3 4 3 2 5 3 4 3 7 4 1 1 3 5 3 5 3 4 2 6 5 5 4 1 3 6 7 7 4 6 9 6 1 5 10 11 11 8 10 11 11 10 12 11 12 10 9 9
19 19 20 19 21 22 21 20 13 1 0 2 3 4 5 4 3 5 2 1 3 7 3 3 3 3 1 1 1 3 3 2 3 1 3 2 0 3 1 1 4 1 4 6 6 8 6 5 3 1 1 1 3 2 3 7 2 2 1 2 4 3 5 5 6 6 6 4 4 6 2 4 2 6 4 5 3 4 7 8 7 7 7 6 4 4 5 11
19 20 18 21 21 23 25 19 2 1 1 2 3 6 7 6 0 4 3 2 2 4 5 1 0 1 1 2 1 1 0 1 1 2 2 1 1 2 1 1 2 4 1 5 5 7 1 1 1 5 5 7 5 3 4 7 5 1 1 2 3 7 6 2 2 4 1 2 3 8 2 1 1 3 9 7 3 6 5 9 11 11 7 4 6 6 5 6
19 20 19 20 22 24 23 3 1 4 4 1 3 4 2 1 1 3 3 2 2 5 4 2 1 1 0 1 1 2 5 1 3 1 3 3 3 1 1 2 1 3 6 2 4 4 2 3 6 5 7 7 6 3 0 3 5 5 2 1 0 1 4 6 5 4 0 2 3 2 2 1 4 2 8 8 7 9 2 8 11 10 7 5 6 5 7 8
20 20 19 19 19 20 6 0 3 4 2 2 4 4 3 4 1 3 2 4 2 1 2 2 1 0 3 2 2 3 3 2 4 2 1 2 2 0 2 5 3 1 1 0 6 2 1 3 7 6 7 6 7 6 3 5 6 1 3 3 3 4 3 3 6 5 1 1 3 4 3 1 1 2 4 10 11 7 6 9 9 9 7 7 6 5 6 8
21 20 18 18 20 10 3 3 6 3 2 4 5 4 4 3 3 5 4 2 0 3 1 2 0 1 0 2 4 1 4 1 2 2 2 2 3 3 2 2 1 4 5 3 4 5 2 1 4 5 4 5 2 3 5 2 2 2 2 1 2 2 3 1 5 7 3 4 3 4 2 3 1 1 2 9 7 4 11 12 11 9 8 7 6 6 6 7
20 19 17 19 21 10 2 2 0 2 4 6 6 5 4 4 5 6 3 2 2 1 1 0 4 1 1 2 0 1 0 1 2 2 1 1 1 2 1 3 0 5 3 2 2 1 2 1 3 6 5 2 3 3 3 2 2 3 2 2 0 3 2 1 0 2 1 4 3 3 1 2 2 3 4 1 3 7 12 14 11 8 10 9 8 6 5 5
20 20 17 19 13 2 0 1 4 6 6 6 5 5 4 3 2 2 2 2 1 1 0 2 1 2 1 3 2 2 1 1 1 1 0 1 2 4 0 0 0 2 3 5 2 6 2 2 5 5 2 2 2 3 2 3 3 1 4 2 4 4 5 3 3 2 4 2 3 4 3 4 0 3 7 8 8 11 6 1 4 5 7 7 7 6 6 7
22 20 18 13 2 2 3 4 6 3 4 5 4 4 3 6 3 4 1 2 1 2 2 2 2 3 0 0 1 2 0 1 1 1 1 3 2 4 4 2 6 4 5 8 3 6 2 0 2 1 1 2 2 3 5 3 2 3 1 1 5 2 7 5 5 6 4 2 6 4 2 4 4 3 5 9 3 9 13 11 11 10 10 10 8 6 6 7
23 23 17 8 5 4 2 2 4 5 6 6 5 4 4 1 5 3 2 1 1 3 1 2 2 1 1 4 3 0 2 2 0 1 3 0 0 0 2 3 0 3 4 2 4 3 3 2 1 1 0 8 2 5 7 7 9 6 4 7 1 2 5 2 6 4 0 1 4 1 1 2 1 7 7 5 1 5 9 12 14 13 11 10 8 7 6 6
23 23 24 8 7 2 6 7 6 5 6 5 3 4 3 4 1 3 0 1 1 1 1 2 3 2 0 1 1 2 4 1 3 1 5 1 0 3 3 2 2 3 2 2 1 7 5 1 2 2 5 1 4 4 3 5 5 6 4 3 5 2 2 0 1 1 3 7 7 1 1 1 2 6 4 5 6 10 11 10 11 12 11 10 9 6 6 6
22 21 9 2 6 7 5 4 5 5 5 5 2 5 6 5 1 5 1 1 1 1 3 1 3 4 3 1 2 1 2 1 2 2 2 1 2 2 3 5 4 4 4 1 4 0 5 5 3 1 1 2 1 4 4 3 0 1 2 4 4 5 1 0 1 1 1 5 8 6 2 2 1 3 4 10 10 8 7 6 7 9 9 8 6 5 5 5
25 17 7 4 3 8 12 10 5 1 2 3 8 5 3 2 2 4 1 1 1 0 1 1 0 2 2 3 2 0 2 1 0 2 5 4 4 1 2 4 4 5 3 3 1 2 1 4 6 3 4 2 1 1 2 3 3 1 4 6 5 0 6 3 4 3 2 2 5 6 1 1 2 3 3 1 5 4 4 5 5 6 4 5 5 6 7 7
15 5 1 5 2 4 6 6 1 2 1 6 5 3 1 2 1 1 1 2 0 1 3 4 4 2 2 3 1 2 2 1 3 3 3 3 3 3 4 3 4 5 2 2 1 1 5 2 4 9 3 1 0 1 2 3 1 4 4 2 3 6 6 3 2 1 2 4 1 2 6 5 5 8 8 7 5 4 5 5 5 5 5 5 7 7 7 8
6 8 3 2 2 4 3 2 3 3 6 6 4 0 4 2 2 2 2 1 2 1 2 2 1 2 2 2 2 3 2 3 2 2 1 2 3 5 4 3 4 6 2 5 1 1 1 5 5 7 7 5 5 1 2 1 3 3 5 5 1 2 6 3 1 3 4 2 3 2 2 3 4 1 3 4 3 4 7 7 8 7 7 9 8 8 9 10
6 4 4 5 7 5 3 3 6 3 3 2 0 6 1 1 3 2 0 1 2 3 2 2 1 4 0 0 5 3 2 3 4 2 1 1 1 1 3 1 5 3 3 4 5 3 2 3 1 2 4 6 8 3 6 4 5 5 1 3 5 1 5 5 4 1 2 1 3 4 3 2 2 1 1 4 5 6 5 4 5 7 8 10 8 9 8 6
2 1 3 6 3 3 3 7 6 4 2 2 1 2 2 1 2 2 3 4 1 2 2 0 1 1 2 2 2 3 2 1 1 1 2 1 3 1 2 1 3 8 5 7 6 1 5 1 4 4 4 4 3 6 4 6 6 4 3 7 1 6 1 3 0 3 3 1 3 3 5 1 2 1 1 3 5 7 6 5 9 12 13 11 9 8 8 8
3 2 1 2 1 5 4 7 4 4 3 0 2 2 3 1 1 1 2 3 1 2 0 0 0 0 1 0 0 1 2 4 3 2 3 2 3 1 3 5 1 1 6 6 3 1 1 2 1 6 7 3 4 3 3 1 2 6 9 4 5 1 1 3 2 2 2 1 1 0 4 3 6 3 2 5 8 8 9 11 10 9 9 9 7 8 8 9
2 1 3 2 1 3 7 6 2 1 1 2 1 2 2 1 1 2 4 5 1 1 2 1 1 2 1 3 5 2 2 3 4 3 1 2 2 0 0 1 1 1 2 7 8 4 2 3 0 4 6 3 3 2 3 1 1 4 4 3 2 3 3 3 1 3 2 3 0 1 1 6 7 4 4 3 3 2 6 8 7 6 7 7 7 8 10 10
1 1 1 1 3 6 7 3 1 1 1 0 2 2 1 2 2 2 1 1 2 0 1 2 1 1 1 1 1 2 2 2 2 2 2 2 1 3 3 5 5 1 3 1 1 1 3 2 2 2 1 3 4 3 1 5 6 4 6 2 3 3 6 5 1 3 1 1 2 2 1 4 4 2 2 3 4 5 2 5 6 8 9 9 10 11 11 11
1 3 5 4 2 7 4 1 2 1 0 4 3 2 1 2 1 1 2 2 1 2 2 3 1 3 0 1 1 2 1 2 3 1 1 1 3 3 3 6 4 6 4 2 2 1 5 3 4 5 6 6 5 2 1 5 4 5 4 1 3 3 2 6 3 4 2 2 2 1 0 5 5 1 1 3 1 3 4 5 5 3 1 4 8 9 9 7
3 2 5 2 1 5 4 2 2 1 3 3 3 1 3 2 1 4 1 1 1 1 2 1 4 1 0 1 2 2 1 2 6 7 3 4 3 6 7 7 6 2 3 2 3 2 1 2 3 2 4 8 8 8 7 5 6 2 1 3 0 0 3 1 4 2 1 3 4 4 2 4 5 4 5 1 2 2 3 4 6 5 5 3 3 4 6 9
3 3 3 6 4 4 2 4 4 1 1 1 1 1 1 3 1 1 0 1 1 2 1 1 1 3 2 1 2 3 4 2 1 6 4 4 1 1 6 6 6 2 1 3 4 1 4 1 2 1 1 0 3 3 5 7 7 4 1 4 4 3 4 5 1 1 1 2 3 2 2 7 8 6 6 5 6 4 2 3 2 4 7 6 5 6 5 5
1 0 3 1 2 1 1 1 3 2 1 0 4 0 2 2 1 3 3 3 2 3 3 1 3 5 5 4 5 6 6 5 5 1 2 1 2 2 3 5 6 1 1 3 1 3 1 1 3 4 4 3 5 5 5 0 3 4 9 5 6 3 4 4 4 3 3 3 3 6 5 4 7 7 5 7 3 2 4 2 4 6 5 6 5 3 5 5
1 1 1 0 3 2 3 1 1 2 2 3 3 1 1 0 1 1 2 1 2 2 3 5 3 4 3 4 2 5 4 3 3 5 3 1 1 0 6 2 4 4 3 2 1 4 3 3 1 3 2 3 4 4 5 2 2 4 5 7 4 2 0 1 0 6 4 4 4 4 5 2 7 6 6 6 4 3 0 1 4 1 1 1 1 4 4 2
1 4 1 4 4 3 1 6 4 2 2 4 1 1 2 2 2 1 2 1 2 4 3 4 7 3 3 3 3 3 3 3 4 2 2 1 1 6 4 3 2 2 4 1 2 3 3 1 2 1 2 3 3 3 3 4 1 3 6 6 5 3 2 2 2 3 3 3 6 6 3 2 5 4 4 4 4 3 1 1 1 2 5 5 3 2 5 5
3 3 3 1 1 3 6 4 4 6 5 4 1 2 1 2 2 1 3 0 3 3 4 2 3 3 4 2 4 2 1 2 3 2 1 3 2 1 3 3 1 4 2 1 2 1 3 0 1 1 1 3 6 6 5 5 5 6 4 6 6 4 4 2 3 3 4 3 6 7 5 6 6 4 4 5 6 5 1 2 4 5 6 5 4 5 5 4
1 2 4 5 1 2 2 3 4 6 5 2 3 0 3 1 1 2 3 2 2 1 2 6 0 2 4 5 3 3 0 3 1 0 2 2 6 1 1 2 1 4 4 1 0 1 3 2 4 1 1 1 4 6 4 3 3 5 6 7 7 4 4 2 2 3 1 1 2 2 1 3 5 6 6 6 1 0 5 6 5 5 6 6 5 4 4 4
2 2 1 3 4 3 1 3 5 7 4 1 4 1 3 3 4 4 3 2 4 2 1 3 2 3 4 6 5 2 1 1 1 1 3 1 1 2 0 3 0 5 3 1 0 1 2 2 2 2 1 4 3 2 5 5 6 4 4 5 5 2 2 1 1 2 1 1 1 2 3 3 5 4 5 4 1 3 6 4 4 3 4 5 5 4 4 3
3 2 1 1 1 3 1 3 2 6 2 4 4 3 2 2 4 7 5 6 3 5 5 4 3 7 2 6 3 1 2 0 3 3 3 4 3 3 4 4 2 2 1 1 1 2 2 3 1 0 0 2 5 1 3 4 7 8 3 2 6 5 2 3 3 0 2 2 1 0 5 5 5 3 2 2 1 1 4 4 4 3 3 5 5 4 3 1
Wind_Direction
349 348 346 344 344 342 340 340 338 336 332 329 324 324 322 324 320 315 306 303 294 290 292 292 297 301 301 306 308 310 321 306 254 228 347 238 210 187 193 189 164 174 205 186 22 33 347 346 324 319 339 17 269 311 255 299 192 89 164 137 70 157 110 192 161 171 174 149 164 112 102 110 115 134 124 59 56 79 72 72 60 57 73 111 121 121 121 112
349 347 345 345 343 342 341 339 338 335 333 328 325 321 319 313 313 307 301 293 289 285 290 294 304 305 308 306 312 316 322 246 295 261 237 207 187 171 203 200 168 209 204 17 57 62 354 309 289 347 200 250 292 215 204 275 123 134 73 79 165 154 190 24 103 132 142 184 143 130 97 110 123 159 114 99 84 87 83 71 76 83 93 115 114 115 117 127
350 347 346 345 343 342 340 338 337 335 331 326 320 316 312 308 308 304 297 285 281 286 292 300 311 309 303 303 307 322 336 284 309 288 274 215 194 189 198 192 182 192 209 191 153 109 197 255 319 346 302 257 294 249 356 264 34 241 113 65 50 105 114 124 148 161 131 143 133 122 103 82 60 94 115 96 119 100 106 109 69 101 142 106 97 104 124 140
351 348 345 343 343 339 338 336 335 333 328 321 316 312 307 307 306 304 291 285 280 291 302 309 309 310 305 309 326 320 288 37 1 264 272 213 193 199 207 189 170 168 101 153 171 146 205 256 262 208 273 206 273 160 240 263 88 293 70 102 131 139 115 145 115 109 114 118 133 121 110 83 50 93 124 123 86 83 86 81 155 160 152 141 132 126 117 118
351 348 343 342 341 338 336 334 332 330 325 321 317 312 307 310 314 308 301 290 295 303 314 307 304 297 299 326 326 305 19 50 271 239 244 196 202 210 216 179 176 179 139 153 322 187 217 220 208 194 168 255 266 199 236 250 133 56 100 127 139 147 107 157 141 132 127 134 113 99 88 109 98 48 52 79 92 78 34 40 96 140 158 147 142 125 122 128
349 346 344 341 339 338 335 332 330 327 325 321 317 312 310 318 328 318 305 301 308 315 310 301 297 294 305 311 314 302 58 67 242 258 191 202 199 216 211 190 152 104 56 14 17 334 340 2 25 15 342 220 247 219 249 188 111 81 30 84 110 146 133 163 141 145 132 123 97 81 85 82 79 73 56 67 66 79 100 97 65 32 42 76 109 128 133 149
348 347 344 341 340 336 335 331 330 327 324 322 318 315 313 323 331 328 311 306 303 317 295 292 287 293 313 338 282 35 117 246 281 250 183 200 214 206 208 152 112 79 77 351 348 345 354 307 21 239 266 293 283 195 309 83 96 104 134 127 81 90 101 110 104 96 91 104 94 96 92 94 102 77 70 83 90 86 47 81 83 159 135 155 152 175 171 152
349 347 345 342 339 336 334 331 329 326 324 321 318 319 318 328 348 325 310 295 300 286 282 270 276 296 350 327 33 350 68 260 242 224 203 213 231 236 163 132 124 115 153 215 174 219 155 230 257 291 215 162 287 82 92 79 84 106 97 117 111 97 114 117 112 95 93 84 102 87 79 76 89 122 116 110 123 135 149 125 151 180 149 161 136 88 73 80
352 350 347 344 340 336 333 330 328 326 322 320 316 317 321 328 345 327 316 296 282 260 257 260 267 304 33 28 103 10 302 238 194 186 170 208 249 236 145 245 173 157 204 181 198 231 103 269 230 173 307 140 259 86 135 110 32 59 124 125 111 102 105 105 90 99 102 91 95 91 99 106 115 111 67 133 130 137 139 140 155 149 144 137 108 79 128 134
349 349 348 345 340 337 333 329 326 323 319 316 316 314 318 325 337 321 308 286 251 247 240 249 243 165 91 73 39 61 261 169 158 168 181 206 243 278 249 215 153 187 320 273 178 192 168 234 272 255 170 86 50 42 94 92 144 129 117 119 119 130 108 75 111 111 97 105 117 116 129 145 195 128 125 145 166 138 127 133 169 145 127 118 115 123 123 107
346 345 344 344 341 336 332 327 324 320 316 316 315 316 315 316 327 313 303 275 237 225 232 228 187 140 359 83 83 264 250 114 228 193 193 196 209 247 250 246 200 225 214 276 308 191 221 247 104 331 61 153 83 21 83 139 135 119 116 101 84 72 66 103 93 114 111 63 112 113 108 87 9 53 151 168 173 160 127 140 146 125 123 129 128 132 137 117
340 339 339 338 340 337 331 326 322 319 317 315 314 314 311 313 306 283 274 251 227 225 227 202 164 219 4 118 175 217 232 183 182 210 216 178 189 217 235 227 179 220 306 309 303 313 295 289 56 74 130 124 87 90 76 141 125 135 124 100 117 103 78 127 125 161 106 106 137 114 72 16 349 118 133 143 144 150 121 134 138 123 113 120 135 137 131 121
337 332 330 332 337 337 333 328 323 320 317 314 311 311 311 308 295 271 257 239 221 211 212 166 168 225 42 342 235 231 270 198 188 205 238 213 246 251 245 270 271 259 232 225 275 265 293 305 42 11 346 78 115 84 158 111 128 120 81 122 80 16 21 315 42 76 74 143 177 126 37 289 289 184 136 159 149 135 119 134 147 141 136 134 143 141 119 134
333 329 327 328 333 330 335 331 325 320 314 313 310 311 307 303 287 264 220 195 174 186 169 152 188 209 93 239 274 211 235 173 191 193 230 216 249 272 293 280 275 279 245 220 241 256 291 357 46 352 317 100 141 289 44 356 21 55 76 65 112 64 273 294 65 109 77 238 241 84 133 259 263 263 204 176 180 144 139 155 159 144 124 111 121 146 131 163
332 329 330 327 329 330 332 332 324 317 313 311 311 309 305 299 291 274 179 174 193 189 165 119 297 85 16 279 248 267 184 120 183 223 210 190 215 286 283 275 276 264 240 215 250 335 21 359 7 44 326 347 59 57 14 27 4 31 43 314 325 103 267 301 327 138 133 278 129 90 97 213 223 238 220 198 199 155 138 156 147 149 130 137 143 138 142 154
327 328 326 329 332 335 336 331 325 317 311 309 311 308 299 286 279 277 173 182 168 154 160 31 358 155 14 321 272 335 58 171 246 229 241 175 191 214 235 249 242 263 322 300 225 10 20 95 202 198 35 24 55 89 51 29 335 1 96 261 292 63 191 17 286 269 137 118 324 103 174 86 269 239 234 202 200 179 133 137 138 147 152 164 165 167 179 162
330 329 328 332 335 335 334 330 326 316 313 312 313 301 284 269 270 268 223 165 156 153 184 125 133 173 35 247 335 277 225 238 231 254 251 202 209 217 314 87 203 226 275 306 345 37 328 54 285 31 52 111 124 95 62 20 326 312 49 191 205 155 145 29 301 257 150 128 224 146 128 209 208 188 211 198 194 170 132 144 160 171 184 181 174 178 172 170
327 328 331 333 334 337 335 331 327 319 319 315 304 287 296 300 306 312 305 114 152 159 223 291 143 50 296 314 283 227 216 230 224 235 214 222 192 237 217 327 323 298 332 333 340 205 289 334 34 195 28 75 35 57 98 237 205 221 211 193 299 302 129 173 142 245 148 203 168 194 155 249 194 167 196 198 196 173 163 164 175 190 190 181 168 167 171 172
324 330 332 333 333 336 336 334 328 328 328 314 289 282 245 108 115 112 56 175 116 3 12 278 100 138 119 248 249 318 233 203 133 129 256 226 256 199 178 182 137 71 281 140 280 182 327 63 26 27 76 144 222 161 164 212 168 202 183 179 162 130 192 168 231 209 170 183 193 174 199 191 181 177 186 193 195 180 183 158 183 200 204 181 162 169 175 175
327 325 331 332 333 337 339 334 330 332 343 344 1 352 17 4 11 341 333 74 170 184 217 219 224 228 293 292 269 227 331 33 161 237 279 249 4 337 324 149 355 61 106 216 289 245 112 68 250 225 212 215 222 190 183 210 179 186 136 111 182 152 246 220 185 187 188 123 220 203 191 167 186 190 185 183 169 180 179 171 185 194 199 209 192 173 177 178
329 326 326 325 333 336 337 335 332 332 342 332 318 11 46 322 9 334 326 278 231 222 235 246 210 217 240 277 220 116 167 286 153 300 253 212 125 50 295 133 8 305 217 234 205 280 82 81 252 188 199 207 215 194 176 207 163 136 163 157 175 155 182 196 185 190 181 163 238 203 185 188 193 195 180 166 164 186 189 192 190 193 201 203 198 185 179 170
332 334 332 332 331 335 331 330 331 331 322 252 18 25 262 233 187 202 134 320 317 262 218 247 236 249 264 222 244 145 97 350 313 284 278 108 252 136 286 17 202 241 282 229 169 23 66 160 226 229 211 262 321 63 112 159 171 87 145 174 119 260 217 295 188 176 188 165 252 170 201 221 198 188 177 179 188 194 194 186 194 189 202 201 204 195 171 139
332 334 336 331 333 331 329 319 332 316 191 81 104 238 245 236 293 205 100 229 271 274 284 280 278 251 253 239 267 94 98 200 258 282 232 100 67 180 204 318 271 240 247 220 223 77 60 297 252 251 25 14 335 351 57 186 142 100 78 94 172 205 123 234 258 184 189 177 205 167 191 250 121 164 186 195 190 199 202 199 202 194 195 196 200 192 175 160
331 334 335 334 331 331 321 322 315 78 254 204 241 221 252 322 282 55 64 186 277 312 243 243 202 220 140 174 244 118 154 282 147 287 265 112 156 212 66 228 276 45 311 178 158 139 175 224 236 46 42 144 266 338 67 79 59 348 110 128 132 145 228 162 217 193 186 258 74 108 91 333 147 137 191 217 202 195 204 208 223 229 228 215 183 166 175 174
329 334 338 336 335 328 322 317 66 48 325 207 239 247 259 266 40 132 95 343 8 290 280 325 302 98 255 315 16 67 268 318 240 201 254 107 290 39 238 256 48 304 355 103 85 71 33 270 60 31 21 23 19 26 32 115 96 324 261 172 171 169 196 243 66 97 23 328 266 138 39 286 281 190 180 176 163 200 206 194 214 216 216 186 190 183 161 172
331 333 339 337 334 331 314 347 350 335 359 272 232 298 281 133 54 104 96 78 309 262 344 257 353 304 239 330 59 161 65 276 233 230 145 218 156 133 7 357 118 302 308 130 145 158 165 330 79 65 53 44 30 60 176 134 118 75 287 229 319 47 115 183 121 103 37 143 274 105 125 264 321 160 161 179 175 194 243 218 216 216 216 212 208 179 172 162
331 332 337 337 334 338 1 341 314 317 31 325 304 301 296 9 84 63 61 354 27 276 296 236 62 327 74 245 163 66 41 256 298 327 40 240 110 2 92 284 3 310 278 153 45 329 22 11 50 47 66 51 21 18 309 118 92 90 252 296 344 32 5 136 158 170 199 249 307 44 109 137 337 301 192 167 162 186 218 233 234 226 225 225 218 190 173 168
329 331 334 334 329 337 220 333 344 7 225 257 295 311 354 0 63 51 79 68 334 282 314 315 3 8 87 285 82 111 203 215 29 293 174 289 74 357 74 256 212 287 316 67 106 249 140 353 90 75 89 81 45 255 263 129 107 215 239 147 332 286 303 106 115 165 165 102 293 326 29 62 295 291 113 139 134 210 220 224 230 227 228 230 222 205 176 172
326 329 334 333 326 322 188 221 50 253 260 296 307 342 338 47 77 109 117 100 250 298 72 25 282 340 279 32 325 237 336 136 144 254 317 352 342 135 37 267 85 348 329 118 152 303 295 152 176 133 103 58 237 260 268 96 69 281 267 15 29 326 220 234 75 101 2 65 309 272 145 112 286 284 118 90 157 197 218 220 225 221 221 221 222 210 171 162
323 327 333 334 329 94 330 211 238 244 286 300 317 330 28 53 37 38 9 114 294 327 308 250 62 253 8 45 306 10 11 311 244 340 353 147 296 32 255 244 153 8 343 357 109 205 230 288 179 102 144 194 200 263 230 309 243 185 54 4 352 20 360 17 60 79 58 30 257 249 217 124 226 265 183 149 207 200 188 215 246 235 234 231 227 205 177 170
321 320 327 334 312 306 342 311 255 244 282 314 326 35 64 35 110 92 105 229 354 255 322 0 299 350 334 153 327 303 58 355 345 118 328 359 345 43 4 9 27 47 23 12 350 332 345 73 24 319 132 79 112 349 350 343 5 69 53 49 34 336 3 25 346 35 79 280 263 252 185 167 145 295 265 234 267 171 163 189 199 206 210 215 212 205 185 172
319 316 315 311 235 348 180 226 269 330 334 330 35 51 67 60 7 104 208 291 75 281 79 265 267 244 250 214 136 244 187 333 241 104 180 169 112 75 293 143 104 43 354 346 328 340 38 30 267 330 250 102 6 58 344 11 16 33 36 34 78 278 32 353 7 18 115 226 260 308 335 51 189 216 209 230 173 169 179 172 191 192 198 206 208 200 186 173
317 313 314 283 201 208 240 253 305 319 332 2 57 46 62 96 90 269 317 7 251 165 11 216 255 1 27 47 313 315 38 48 292 286 144 274 134 296 236 170 181 133 127 275 358 17 295 288 17 323 11 57 102 79 341 13 342 38 51 80 70 45 32 91 276 232 330 299 271 270 321 109 260 296 224 144 188 186 183 189 182 178 188 197 200 187 180 177
311 315 319 252 197 227 260 284 278 347 345 28 69 34 44 68 265 215 136 226 224 282 311 279 332 14 40 75 257 106 360 275 155 256 107 193 63 33 344 3 57 44 85 78 76 290 56 350 311 51 313 291 110 151 167 172 159 158 182 118 157 147 159 195 247 52 268 230 288 316 61 220 64 257 260 165 178 191 184 166 170 179 183 190 187 172 168 178
310 299 253 258 235 250 241 253 271 10 57 60 49 84 108 224 228 136 101 315 289 130 284 288 153 42 339 354 309 237 159 293 331 47 18 69 0 73 329 29 359 104 101 73 288 79 355 211 253 222 244 132 87 237 156 104 57 278 125 97 55 248 157 81 200 153 241 325 352 344 355 181 130 288 346 178 110 86 110 128 147 161 151 153 164 182 189 191
315 311 198 283 231 267 201 229 148 87 85 56 73 49 126 185 132 166 93 190 268 73 309 7 41 50 338 312 297 295 15 125 308 71 356 98 79 39 319 42 17 358 103 112 213 62 22 333 291 323 21 77 55 354 353 112 65 272 54 347 245 176 108 88 1 352 45 50 293 234 354 328 304 20 20 21 77 114 121 139 156 166 167 168 189 193 194 197
349 328 10 298 267 247 220 188 122 80 58 89 89 42 208 280 205 159 311 134 202 134 60 92 315 100 347 319 271 349 297 52 330 93 318 70 357 5 340 53 27 41 84 136 349 174 134 255 304 33 355 328 327 53 37 60 138 64 47 279 287 37 116 112 161 342 55 103 275 30 24 310 45 144 327 57 91 171 162 168 173 175 172 184 197 196 196 199
326 321 255 257 243 236 184 169 96 51 76 80 112 220 232 107 302 112 209 52 18 22 89 103 270 105 299 97 338 302 321 91 291 56 146 19 130 304 328 1 7 70 50 79 116 318 101 2 303 349 333 302 349 36 354 341 53 119 167 237 79 323 12 324 83 9 352 348 301 335 308 338 25 15 17 141 152 209 200 174 159 179 193 200 197 205 208 206
270 10 345 254 233 160 139 116 78 78 59 50 290 25 265 185 263 102 208 133 126 109 69 270 144 300 128 25 268 317 11 97 300 111 88 324 80 3 30 331 28 19 22 85 65 291 49 124 305 304 23 310 12 56 10 307 340 48 62 24 20 103 117 41 133 179 118 289 46 304 25 333 299 245 202 204 214 201 183 186 199 191 196 196 198 196 195 197
359 32 297 278 109 117 112 74 63 46 69 125 225 199 233 120 304 338 50 85 3 75 236 81 308 82 1 230 177 17 332 55 37 341 93 296 121 270 31 360 102 16 47 63 112 93 57 112 288 281 311 26 7 5 348 206 90 2 39 359 354 17 210 114 27 68 144 164 154 167 1 292 283 247 240 136 173 192 184 194 202 206 204 200 193 186 193 198
294 133 271 272 215 130 64 56 53 83 191 259 167 224 288 197 186 338 22 65 72 210 154 166 92 79 228 23 353 336 42 21 33 34 35 8 109 329 244 160 304 116 9 26 54 360 59 15 347 300 11 11 235 270 17 130 149 136 140 97 175 62 43 59 295 337 59 91 232 94 244 263 278 350 315 341 331 245 206 184 189 206 209 204 195 201 192 194
29 17 267 271 223 75 80 86 289 220 120 238 259 184 243 341 63 49 20 323 110 279 347 94 14 123 68 61 183 4 82 42 1 79 350 115 31 130 316 26 65 61 102 78 66 252 143 153 84 345 218 246 263 302 311 120 103 108 111 96 128 115 105 95 99 277 12 296 110 154 150 272 238 271 59 32 78 117 152 149 171 189 196 199 204 202 200 196
90 221 250 266 261 85 73 58 301 48 223 233 267 1 14 34 78 128 81 14 7 22 22 40 296 54 115 101 319 69 97 60 13 116 144 90 49 2 313 39 98 58 82 328 19 297 67 58 26 299 310 293 310 297 356 48 65 26 357 57 59 15 161 164 173 188 135 318 41 3 323 251 280 255 255 116 97 132 167 164 175 226 315 258 214 203 204 211
312 286 313 305 80 90 83 167 186 280 272 308 93 148 12 158 98 21 41 318 138 349 87 13 347 103 287 54 62 25 67 81 11 35 20 19 40 332 29 38 61 47 89 228 119 264 64 301 109 4 356 339 341 353 352 357 56 76 315 291 183 356 75 138 97 49 83 232 162 122 233 281 271 329 314 17 73 112 189 230 168 184 231 199 236 236 210 216
297 279 246 294 358 77 166 190 145 174 270 233 91 64 13 21 350 119 118 38 83 92 65 353 16 16 30 321 85 51 29 108 106 351 76 43 43 350 6 48 40 80 67 198 154 65 92 191 89 107 113 334 314 338 318 333 316 297 357 344 329 10 339 7 325 4 103 281 111 136 247 252 278 314 305 328 356 339 269 247 305 212 196 201 184 213 225 216
345 70 295 318 7 32 322 178 125 142 267 137 57 278 96 88 10 12 56 28 45 77 82 188 8 61 25 28 38 33 16 26 90 239 49 23 355 345 311 3 18 83 244 92 57 73 127 62 93 147 149 178 208 225 244 213 338 11 307 315 305 6 48 93 108 94 211 218 192 225 192 261 296 292 310 312 321 293 314 309 196 208 231 205 190 198 200 221
288 195 182 269 344 356 238 351 74 101 211 154 103 231 26 162 189 356 39 89 1 102 57 37 25 47 340 61 41 44 360 49 24 93 37 61 289 247 304 302 7 40 103 93 16 83 61 46 343 134 161 197 204 220 256 232 278 283 314 299 310 315 71 75 66 274 186 90 301 263 207 173 254 272 281 290 283 287 294 263 286 30 100 130 57 326 297 284
85 254 140 199 129 239 209 296 199 194 203 92 129 88 177 70 54 118 337 100 91 50 95 343 35 49 81 114 110 65 339 30 26 42 306 336 359 337 14 347 85 87 99 11 2 110 134 127 258 80 312 267 237 249 292 357 319 296 307 289 274 284 22 6 261 229 143 234 226 252 201 207 255 242 258 244 226 235 248 327 200 92 91 85 113 146 67 55
189 273 275 328 246 235 165 210 148 145 101 109 97 74 102 96 126 210 161 25 36 1 85 107 359 9 55 49 91 123 39 58 330 305 50 326 19 350 9 335 312 17 65 57 2 97 82 189 211 157 342 330 326 329 347 20 330 338 326 304 288 286 300 242 250 234 174 228 235 248 254 244 239 250 216 226 212 205 221 85 97 96 114 134 121 85 97 108
331 48 317 358 15 248 223 120 124 106 104 95 98 270 136 134 131 329 24 96 84 97 34 93 190 33 70 61 78 94 348 156 170 201 304 66 338 48 296 194 252 330 37 41 125 352 103 277 204 104 60 307 293 317 357 26 354 330 308 292 284 307 323 289 212 284 157 287 8 38 221 285 269 216 222 244 172 350 91 121 131 135 127 114 97 77 66 85
262 241 233 300 332 286 343 83 111 121 108 21 90 238 89 132 113 118 48 21 144 140 89 153 152 56 31 75 69 106 210 173 175 210 235 169 246 238 75 278 83 327 346 354 51 341 77 259 44 73 56 312 298 352 324 350 351 337 307 314 331 348 354 286 310 231 140 221 316 42 17 303 283 307 290 312 9 90 133 137 125 132 128 105 98 91 77 78
320 285 291 170 240 284 247 94 89 78 126 220 145 200 137 215 175 110 74 9 64 120 148 136 126 97 23 61 60 27 288 226 287 264 255 248 217 249 206 221 231 221 246 234 179 123 168 124 164 63 313 258 265 42 347 15 10 353 332 301 323 291 226 280 293 235 208 147 96 151 232 221 244 280 301 306 322 145 126 156 121 87 92 97 101 88 87 111